Date,TemperatureHighF,TemperatureAvgF,TemperatureLowF,DewpointHighF,DewpointAvgF,DewpointLowF,HumidityHigh,HumidityAvg,HumidityLow,PressureMaxIn,PressureMinIn,WindSpeedMaxMPH,WindSpeedAvgMPH,GustSpeedMaxMPH,PrecipitationSumIn
2013-1-1,28.6,25.9,18.9,21.9,15.9,-0.4,76,67,40,30.19,30.08,21,5,21,0.00
2013-1-2,25.2,18.0,14.7,25.0,-7.6,-25.4,43,30,10,30.34,30.16,14,4,14,0.00
2013-1-3,34.3,21.5,12.6,34.3,-2.0,-26.9,50,24,10,30.33,30.23,21,6,21,0.00
2013-1-4,32.2,25.2,23.2,32.2,0.9,-20.9,51,33,10,30.34,30.24,27,10,27,0.00
2013-1-5,38.5,26.9,22.3,38.5,1.7,-18.0,46,28,10,30.51,30.29,22,6,22,0.02
2013-1-6,36.5,32.6,29.7,20.5,4.3,-6.5,66,32,16,30.32,30.14,16,6,16,0.01
2013-1-7,32.2,27.9,22.8,20.7,11.3,-1.7,67,51,24,30.56,30.31,15,4,15,0.00
2013-1-8,46.9,35.4,23.5,46.9,11.6,-17.7,50,12,10,30.51,30.40,14,4,14,0.00
2013-1-9,42.3,37.7,33.6,31.1,9.1,-14.3,68,35,11,30.58,30.37,26,7,26,0.04
2013-1-10,46.0,36.0,27.5,46.0,23.5,-13.9,62,22,10,30.73,30.51,16,4,16,0.00
2013-1-11,47.5,41.5,36.0,42.1,28.7,-13.2,84,43,10,30.51,30.20,15,7,15,0.37
2013-1-12,60.6,53.5,45.7,58.8,47.3,37.8,99,81,50,30.31,30.21,9,4,9,0.01
2013-1-13,68.4,59.8,54.9,47.8,32.3,15.1,77,39,13,30.22,30.10,23,6,23,0.19
2013-1-14,56.5,37.7,28.4,50.4,16.9,-12.6,82,47,10,30.50,30.12,26,5,26,0.09
2013-1-15,32.4,28.2,23.2,19.2,6.6,-4.9,67,42,20,30.50,30.22,9,3,9,0.00
2013-1-16,33.1,31.2,28.8,25.5,22.9,17.8,76,71,61,30.23,30.02,17,5,17,0.00
2013-1-17,31.6,29.0,27.5,17.8,15.4,12.7,65,57,49,30.30,30.14,19,4,19,0.00
2013-1-18,31.3,23.5,13.8,31.3,15.0,-30.5,67,15,10,30.57,30.23,23,7,23,0.00
2013-1-19,52.3,40.3,28.0,52.3,40.3,27.9,0,0,100,30.41,30.02,27,10,27,0.08
2013-1-20,44.1,32.7,17.6,44.1,25.6,-27.2,21,3,10,30.25,29.95,34,11,34,0.02
2013-1-21,21.7,17.1,7.0,3.2,-7.4,-34.6,50,34,12,30.22,30.01,22,5,27,0.00
2013-1-22,13.6,4.9,1.9,13.6,-18.7,-39.6,37,19,10,30.33,30.10,21,7,21,0.00
2013-1-23,14.5,5.7,0.3,14.4,-13.3,-38.2,37,20,10,30.35,30.17,15,4,17,0.00
2013-1-24,21.4,10.9,3.2,21.4,-0.4,-41.1,43,17,10,30.60,30.14,21,3,21,0.00
2013-1-25,15.3,10.7,4.1,11.5,-13.9,-37.1,49,31,10,30.58,30.12,15,3,15,0.00
2013-1-26,23.7,18.7,14.9,7.3,1.1,-4.5,52,46,29,30.53,30.18,15,4,15,0.00
2013-1-27,39.0,24.6,13.6,38.8,15.2,-22.4,51,19,10,30.64,30.48,8,2,8,0.07
2013-1-28,47.1,38.1,27.5,41.4,27.1,-3.6,80,65,25,30.48,30.18,23,7,23,0.54
2013-1-29,60.8,52.3,45.3,51.8,38.9,24.6,96,67,25,30.26,30.07,13,4,15,0.07
2013-1-30,64.9,55.5,47.8,45.7,32.6,12.4,74,48,13,30.07,29.48,30,6,30,0.93
2013-1-31,47.7,25.3,18.9,37.9,6.5,-28.5,69,37,10,29.97,29.43,33,11,33,0.13
2013-2-1,19.2,12.4,6.4,16.0,-12.9,-38.2,51,24,10,30.40,29.92,27,7,27,0.02
2013-2-2,20.5,13.8,5.2,5.5,-11.0,-31.4,52,33,12,30.40,30.08,14,5,14,0.00
2013-2-3,26.6,19.9,14.2,6.6,-0.9,-13.2,52,41,18,30.10,29.93,18,4,18,0.00
2013-2-4,26.2,18.9,12.6,26.2,-1.0,-30.3,57,29,10,30.17,29.99,17,5,18,0.00
2013-2-5,29.1,26.1,23.5,15.8,13.0,10.6,60,57,54,30.09,29.96,10,1,10,0.00
2013-2-6,33.3,24.8,19.6,33.3,7.9,-26.7,58,32,10,30.46,30.06,15,1,15,0.01
2013-2-7,38.1,27.7,18.1,38.1,4.4,-22.5,34,15,10,30.44,30.19,17,6,17,0.04
2013-2-8,35.4,28.9,19.6,22.1,10.1,-5.6,59,46,21,30.21,29.96,21,5,21,0.14
2013-2-9,34.5,21.3,15.6,34.5,8.0,-28.7,49,21,10,30.51,30.21,0,0,0,0.01
2013-2-10,47.8,33.0,17.8,47.8,26.0,-28.3,19,2,10,30.49,30.19,16,4,16,0.00
2013-2-11,61.0,43.6,32.7,61.0,36.7,-15.9,65,21,10,30.20,29.85,31,9,31,0.14
2013-2-12,40.3,31.7,27.1,40.1,15.6,-21.6,15,4,10,30.20,30.06,23,6,23,0.00
2013-2-13,43.2,33.1,27.9,43.0,23.3,-20.7,52,16,10,30.10,29.85,11,2,11,0.00
2013-2-14,41.2,31.9,24.6,41.2,17.6,-15.0,52,25,10,30.12,29.99,17,3,17,0.30
2013-2-15,39.6,33.2,26.2,39.4,14.2,-18.4,49,19,10,30.19,30.07,15,5,15,0.01
2013-2-16,31.8,22.8,14.4,31.8,4.6,-26.1,49,22,10,30.17,30.03,12,3,12,0.02
2013-2-17,25.5,15.7,12.0,25.5,0.8,-31.2,34,15,10,30.33,30.01,21,6,22,0.01
2013-2-18,42.1,24.1,5.4,42.1,16.1,-39.1,15,3,10,30.42,30.13,14,4,14,0.05
2013-2-19,41.7,33.4,21.4,40.1,14.5,-24.7,43,18,10,30.13,29.83,31,8,31,0.18
2013-2-20,22.1,16.4,13.5,22.1,-3.2,-31.7,30,10,10,30.29,30.02,27,10,27,0.00
2013-2-21,27.1,17.4,14.0,27.1,-6.2,-32.1,30,13,10,30.45,30.25,18,5,18,0.00
2013-2-22,28.6,24.4,15.1,26.8,8.7,-30.8,41,21,10,30.40,30.19,18,9,20,0.00
2013-2-23,45.5,35.4,27.9,45.5,7.7,-11.4,43,28,10,30.20,30.01,13,3,13,0.00
2013-2-24,33.1,27.0,24.6,28.6,-2.2,-24.2,47,24,10,30.26,30.01,20,5,20,0.01
2013-2-25,46.8,32.3,21.4,46.8,21.9,-16.4,39,12,12,30.36,30.23,15,3,15,0.00
2013-2-26,36.1,33.1,30.9,34.5,22.7,-18.4,47,18,10,30.25,29.81,21,10,21,0.00
2013-2-27,40.1,34.7,31.3,23.0,14.4,-8.7,56,44,12,29.86,29.76,19,5,19,0.22
2013-2-28,31.8,30.2,29.1,16.2,11.7,4.8,54,46,34,29.93,29.79,15,6,15,0.00
2013-3-1,30.9,26.9,22.6,15.3,4.0,-8.3,55,39,22,30.09,29.92,15,4,15,0.00
2013-3-2,26.6,22.0,20.3,26.6,-1.3,-25.6,40,25,10,30.07,30.01,12,4,12,0.01
2013-3-3,27.7,21.6,18.0,27.7,-1.3,-24.2,41,31,10,30.10,30.01,16,6,16,0.00
2013-3-4,36.0,22.8,16.5,36.0,11.4,-27.2,36,14,10,30.21,30.09,18,5,20,0.00
2013-3-5,49.3,31.0,14.2,49.3,20.5,-28.1,30,7,10,30.22,29.89,19,4,19,0.09
2013-3-6,41.9,33.2,28.2,41.9,23.4,-19.5,46,17,10,30.25,29.87,17,5,17,0.15
2013-3-7,40.6,32.4,28.4,40.6,14.8,-19.5,48,18,10,30.39,30.23,18,4,18,0.01
2013-3-8,45.3,32.1,27.1,45.3,16.7,-21.5,40,14,10,30.53,30.37,19,6,19,0.02
2013-3-9,61.0,40.8,23.4,61.0,30.9,-19.7,35,9,10,30.53,30.39,11,2,11,0.01
2013-3-10,62.4,51.2,41.9,62.4,51.2,41.9,0,0,100,30.40,30.24,17,7,18,0.00
2013-3-11,55.8,50.9,46.6,55.8,46.6,-4.4,30,2,11,30.27,29.98,25,9,25,0.01
2013-3-12,50.0,37.5,32.4,34.7,22.1,-16.2,50,30,10,30.15,29.97,18,5,18,0.45
2013-3-13,35.1,28.5,22.1,35.1,0.8,-25.2,38,18,10,30.21,30.07,21,4,21,0.05
2013-3-14,36.5,25.7,20.3,36.5,8.5,-26.1,31,10,10,30.29,30.20,21,8,21,0.01
2013-3-15,43.2,33.4,21.9,43.2,31.0,-14.4,36,2,10,30.26,29.98,21,6,22,0.02
2013-3-16,37.0,32.6,30.2,19.8,14.5,9.3,51,47,36,30.10,29.82,16,2,16,0.12
2013-3-17,33.3,28.5,23.7,33.3,19.3,-24.2,51,15,10,30.35,30.09,11,2,13,0.01
2013-3-18,33.1,28.2,25.3,28.9,6.6,-22.9,42,16,10,30.33,29.93,25,12,25,0.00
2013-3-19,44.1,33.6,26.2,44.1,25.9,-13.9,52,19,11,30.10,29.89,34,9,34,0.18
2013-3-20,36.5,28.4,23.5,36.5,28.4,23.5,0,0,100,30.10,29.96,21,8,21,0.00
2013-3-21,26.2,20.7,14.4,26.1,10.9,-32.3,25,5,10,30.02,29.95,21,6,21,0.00
2013-3-22,30.2,24.4,20.8,30.0,15.4,-26.3,28,7,11,30.16,29.99,18,6,19,0.00
2013-3-23,43.2,30.8,23.4,43.0,30.8,23.4,0,0,100,30.19,30.11,16,4,16,0.00
2013-3-24,38.1,30.6,23.5,38.1,30.6,23.5,0,0,100,30.17,29.74,17,5,17,0.00
2013-3-25,36.7,30.8,27.7,30.9,7.1,-20.4,42,32,11,29.89,29.67,17,4,17,0.11
2013-3-26,44.6,32.5,26.2,44.6,10.1,-18.0,44,27,10,30.20,29.89,15,3,15,0.22
2013-3-27,40.1,32.4,29.3,40.1,15.1,-17.5,45,27,10,30.29,30.17,18,6,18,0.09
2013-3-28,37.6,32.8,30.2,37.6,13.0,-17.7,43,25,10,30.40,30.23,17,5,17,0.11
2013-3-29,51.4,38.7,31.1,51.1,25.3,-17.3,21,6,10,30.41,30.32,14,2,14,0.01
2013-3-30,55.9,41.5,29.5,55.9,41.5,29.5,0,0,100,30.40,30.24,11,2,11,0.00
2013-3-31,45.3,42.8,39.7,45.0,29.4,-11.4,47,20,10,30.24,29.92,16,5,17,0.27
2013-4-1,45.1,37.3,27.5,41.9,23.8,-18.9,42,16,10,30.15,29.89,23,8,23,0.08
2013-4-2,37.4,28.4,22.5,37.4,28.4,22.5,0,0,100,30.32,30.14,23,6,23,0.00
2013-4-3,37.4,28.3,21.4,37.4,27.9,-21.5,11,0,10,30.54,30.29,21,5,21,0.00
2013-4-4,51.4,35.2,18.9,51.4,35.2,18.9,0,0,100,30.51,30.15,13,4,13,0.00
2013-4-5,56.3,42.8,30.4,56.3,42.8,30.4,0,0,100,30.31,30.10,27,6,27,0.00
2013-4-6,57.7,40.0,21.9,57.7,40.0,21.9,0,0,100,30.45,30.27,17,4,17,0.00
2013-4-7,70.3,56.8,45.5,70.3,56.8,45.5,0,0,100,30.27,30.11,21,8,25,0.00
2013-4-8,73.6,61.8,48.9,73.6,61.8,48.9,0,0,100,30.27,30.15,18,5,24,0.00
2013-4-9,78.8,67.8,55.8,78.8,67.8,0.1,0,0,100,30.33,30.15,21,6,21,0.00
2013-4-10,78.6,67.0,56.8,78.6,60.6,5.2,47,8,10,30.23,30.06,26,7,26,0.67
2013-4-11,75.0,62.3,52.2,75.0,48.8,-0.2,52,19,10,30.14,29.89,23,6,23,0.02
2013-4-12,65.5,54.1,41.2,65.5,37.2,3.2,49,21,10,30.04,29.80,21,8,21,0.58
2013-4-13,54.5,43.1,35.8,54.5,43.1,35.8,0,0,100,30.18,30.03,20,6,20,0.00
2013-4-14,64.2,46.9,30.0,64.2,46.9,30.0,0,0,100,30.34,30.18,17,4,17,0.00
2013-4-15,64.0,57.3,52.9,64.0,57.3,52.9,0,0,100,30.36,30.23,19,7,20,0.00
2013-4-16,79.9,62.7,53.6,79.9,50.8,-1.5,44,7,10,30.43,30.27,17,6,17,0.44
2013-4-17,70.3,58.4,49.3,70.3,48.1,-0.2,52,23,10,30.45,30.35,11,3,13,0.01
2013-4-18,77.0,66.1,58.1,76.6,57.2,1.9,24,4,10,30.38,30.09,17,8,17,0.00
2013-4-19,70.7,57.5,40.6,70.7,49.0,-9.6,34,5,10,30.10,29.76,24,8,24,0.28
2013-4-20,46.4,37.6,29.8,46.4,36.7,-17.3,12,0,10,30.54,30.02,27,8,27,0.01
2013-4-21,55.9,39.3,26.8,55.9,39.3,26.8,0,0,100,30.72,30.53,12,4,12,0.00
2013-4-22,59.7,46.8,36.7,59.7,46.8,36.7,0,0,100,30.65,30.49,17,6,17,0.00
2013-4-23,73.2,52.4,35.4,73.2,52.4,35.4,0,0,100,30.50,30.22,12,5,12,0.00
2013-4-24,74.3,53.4,36.1,74.3,43.2,-15.2,33,6,10,30.31,29.97,27,6,27,0.26
2013-4-25,58.3,43.6,34.0,58.3,39.9,-16.4,17,1,10,30.53,30.30,19,6,19,0.01
2013-4-26,60.8,47.6,35.1,60.8,47.6,35.1,0,0,100,30.63,30.51,12,2,12,0.01
2013-4-27,73.6,58.3,43.2,73.6,58.3,43.2,0,0,100,30.58,30.41,11,4,11,0.00
2013-4-28,57.7,51.8,48.2,57.7,38.5,-5.8,17,4,10,30.42,30.22,15,6,15,0.15
2013-4-29,62.1,54.5,45.7,62.1,50.0,-1.7,31,4,10,30.27,30.19,15,5,15,0.04
2013-4-30,66.6,57.3,51.6,66.6,50.5,-2.9,31,4,10,30.43,30.26,14,6,14,0.00
2013-5-1,75.7,61.6,50.7,75.7,61.6,50.7,0,0,100,30.56,30.42,17,6,17,0.00
2013-5-2,76.6,61.6,45.9,76.6,61.6,45.9,0,0,100,30.58,30.45,15,5,15,0.00
2013-5-3,70.9,59.2,48.7,70.9,59.2,48.7,0,0,100,30.51,30.43,15,5,15,0.00
2013-5-4,70.9,57.2,44.6,70.9,57.2,44.6,0,0,100,30.45,30.34,18,6,18,0.00
2013-5-5,73.2,58.5,44.8,73.2,58.5,44.8,0,0,100,30.38,30.28,18,5,18,0.00
2013-5-6,65.7,55.5,44.4,65.7,55.5,44.4,0,0,100,30.33,30.27,15,6,15,0.00
2013-5-7,67.6,59.5,54.7,67.6,59.5,54.7,0,0,100,30.28,30.19,20,6,20,0.00
2013-5-8,73.6,58.8,51.4,73.6,36.0,-0.8,30,13,10,30.22,30.13,17,3,17,1.43
2013-5-9,75.2,59.1,50.9,75.2,43.6,4.8,38,17,10,30.24,30.12,13,3,13,0.04
2013-5-10,76.3,62.4,55.8,76.3,52.3,2.8,32,7,12,30.25,30.06,24,4,24,0.47
2013-5-11,59.0,54.5,47.7,33.8,27.0,13.1,39,35,23,30.06,30.01,14,4,14,0.66
2013-5-12,52.3,44.9,36.5,52.3,35.9,-14.3,29,6,10,30.21,30.01,23,8,23,0.11
2013-5-13,51.6,40.4,30.9,51.6,40.4,30.9,0,0,100,30.34,30.19,18,5,18,0.11
2013-5-14,56.7,44.6,30.9,56.7,44.6,30.9,0,0,100,30.37,30.16,15,3,15,0.00
2013-5-15,84.2,66.1,51.4,84.0,65.9,-0.9,10,0,10,30.16,29.96,22,6,23,0.30
2013-5-16,81.1,68.3,59.9,81.1,60.0,4.1,28,4,10,30.22,30.01,17,4,17,0.26
2013-5-17,82.9,67.6,57.0,82.9,54.6,2.7,28,7,10,30.36,30.22,10,2,10,0.00
2013-5-18,81.7,65.7,54.9,81.7,60.8,3.0,16,1,10,30.39,30.32,13,4,13,0.00
2013-5-19,72.3,62.6,56.5,72.3,41.9,3.9,23,10,10,30.38,30.28,12,4,12,0.00
2013-5-20,88.9,72.9,59.7,88.9,60.6,9.9,31,9,10,30.31,30.19,13,3,13,0.00
2013-5-21,88.7,75.7,64.2,88.7,67.6,8.6,35,6,10,30.24,30.11,11,3,11,0.00
2013-5-22,88.2,72.0,60.8,88.2,63.2,5.4,22,3,10,30.17,30.06,31,4,31,0.34
2013-5-23,76.8,63.3,56.8,76.8,36.0,3.4,35,19,10,30.12,30.01,22,4,22,0.60
2013-5-24,56.8,42.4,37.9,46.8,27.0,-12.6,29,12,10,30.41,30.06,21,7,21,0.13
2013-5-25,66.0,46.3,34.9,66.0,42.5,-16.2,12,1,10,30.45,30.37,19,6,19,0.00
2013-5-26,68.0,51.1,34.9,68.0,51.1,34.9,0,0,100,30.45,30.38,15,3,15,0.00
2013-5-27,66.9,54.1,41.9,66.9,52.8,-4.0,12,0,10,30.48,30.34,7,1,7,0.05
2013-5-28,76.5,61.2,50.4,76.5,46.2,-3.6,35,11,10,30.36,30.26,14,3,14,1.12
2013-5-29,84.6,73.9,64.8,84.6,73.9,64.8,0,0,100,30.36,30.27,22,5,22,0.00
2013-5-30,88.2,76.0,64.6,88.2,76.0,64.6,0,0,100,30.45,30.35,12,2,12,0.00
2013-5-31,90.5,76.9,64.4,90.5,76.9,64.4,0,0,100,30.40,30.27,10,2,10,0.00
2013-6-1,87.3,75.1,63.3,87.3,71.0,6.6,17,1,10,30.30,30.12,20,3,20,0.01
2013-6-2,79.9,71.2,65.5,79.9,66.2,8.6,20,2,10,30.14,30.08,18,4,18,0.02
2013-6-3,68.9,61.1,49.1,68.9,45.0,4.5,21,6,10,30.27,30.12,11,2,11,0.11
2013-6-4,74.8,58.2,41.9,74.7,58.2,41.9,0,0,100,30.38,30.27,12,2,12,0.00
2013-6-5,79.2,66.0,52.3,79.2,66.0,52.3,0,0,100,30.38,30.22,11,4,17,0.00
2013-6-6,64.9,61.0,54.9,64.9,37.2,3.2,31,11,10,30.23,30.06,16,4,16,0.84
2013-6-7,66.4,62.4,50.0,40.1,33.8,21.4,39,34,26,30.06,29.98,13,2,13,0.13
2013-6-8,72.0,58.7,52.5,72.0,45.3,9.7,46,23,16,30.36,30.05,11,2,13,0.05
2013-6-9,81.0,68.5,55.2,81.0,56.1,0.9,26,5,10,30.42,30.30,11,-2,11,0.00
2013-6-10,77.4,66.7,62.2,77.4,30.8,13.3,33,23,11,30.31,30.05,14,3,14,0.65
2013-6-11,73.8,65.1,60.6,73.8,39.8,7.5,39,22,10,30.15,30.04,19,4,19,0.11
2013-6-12,80.8,70.1,61.5,80.8,51.6,10.4,34,12,10,30.17,30.04,11,2,11,0.00
2013-6-13,70.2,64.2,55.6,69.6,25.7,6.1,39,21,10,30.06,29.81,21,6,21,0.59
2013-6-14,75.2,62.3,53.6,74.8,50.0,1.6,29,9,11,30.28,29.99,13,3,13,0.00
2013-6-15,79.5,64.9,52.7,79.5,53.0,0.1,28,6,10,30.35,30.25,13,2,13,0.00
2013-6-16,72.7,64.2,58.1,72.7,40.1,2.1,31,14,10,30.28,30.14,23,4,23,0.39
2013-6-17,83.3,71.7,64.2,83.3,58.8,15.4,36,11,13,30.23,30.17,11,3,11,0.00
2013-6-18,78.3,68.5,60.6,78.3,57.1,5.5,26,5,10,30.20,30.09,9,1,9,0.17
2013-6-19,81.0,64.8,51.6,81.0,59.6,0.3,23,2,10,30.39,30.19,11,3,11,0.00
2013-6-20,84.4,69.9,55.4,84.4,69.9,55.4,0,0,100,30.47,30.38,11,1,11,0.00
2013-6-21,91.4,73.3,60.1,91.4,61.9,4.6,31,6,10,30.51,30.42,8,1,8,0.00
2013-6-22,90.0,75.1,61.9,90.0,65.6,5.2,15,2,10,30.47,30.35,10,2,10,0.00
2013-6-23,90.0,77.7,66.6,90.0,77.7,66.6,0,0,100,30.43,30.32,9,2,9,0.00
2013-6-24,89.2,77.2,68.0,89.2,77.2,68.0,0,0,100,30.40,30.27,12,3,12,0.02
2013-6-25,87.8,74.6,61.9,87.8,60.5,6.3,25,7,10,30.32,30.16,27,4,27,0.32
2013-6-26,84.6,72.8,62.6,84.4,55.8,11.1,44,12,10,30.26,30.11,13,3,13,0.94
2013-6-27,74.3,68.1,65.1,73.9,36.3,12.9,36,31,10,30.12,29.90,13,2,13,1.11
2013-6-28,77.5,66.2,58.5,77.5,44.4,5.0,44,24,10,29.91,29.78,11,3,11,0.20
2013-6-29,81.7,66.6,59.7,81.7,47.7,9.1,44,21,10,29.99,29.81,17,3,17,0.45
2013-6-30,87.3,71.8,61.2,87.3,56.7,8.8,38,11,10,30.13,29.97,11,2,11,0.01
2013-7-1,78.8,69.7,65.3,78.8,42.1,10.2,34,17,10,30.22,30.09,10,3,10,0.72
2013-7-2,86.4,72.7,65.1,86.4,52.9,13.3,44,19,10,30.35,30.21,11,2,11,0.27
2013-7-3,90.3,73.9,66.2,90.1,51.5,13.3,34,18,10,30.45,30.34,10,2,10,0.07
2013-7-4,90.9,73.9,66.4,90.9,54.1,12.7,37,19,10,30.48,30.40,8,2,10,0.13
2013-7-5,88.3,76.1,66.7,88.3,64.4,13.6,37,13,11,30.45,30.37,10,2,10,0.01
2013-7-6,93.0,75.7,67.1,93.0,54.5,14.0,40,18,10,30.45,30.31,10,2,12,1.24
2013-7-7,81.9,71.9,68.0,81.9,48.0,12.4,42,25,10,30.36,30.27,8,2,8,0.18
2013-7-8,83.7,72.0,65.8,83.7,55.9,11.5,37,16,10,30.37,30.30,10,3,10,0.00
2013-7-9,82.2,71.2,66.0,82.2,40.1,15.6,39,25,10,30.35,30.25,10,3,10,0.19
2013-7-10,85.6,70.8,63.9,85.6,49.7,9.3,43,26,10,30.27,30.11,21,4,21,0.87
2013-7-11,80.4,68.3,62.1,80.4,56.3,11.1,45,20,10,30.25,30.13,11,2,11,0.01
2013-7-12,75.0,66.5,60.1,74.8,62.5,3.4,12,1,10,30.37,30.22,14,3,14,0.00
2013-7-13,86.2,71.2,61.9,86.2,61.2,6.4,33,6,10,30.51,30.34,8,3,8,0.00
2013-7-14,89.1,77.5,68.4,89.1,66.1,11.3,32,6,10,30.57,30.49,11,3,11,0.00
2013-7-15,92.1,79.3,69.3,92.1,79.1,14.0,12,0,12,30.60,30.50,9,2,9,0.00
2013-7-16,93.6,79.6,69.6,93.6,61.2,17.4,35,12,10,30.58,30.49,8,2,8,0.15
2013-7-17,92.7,78.3,69.6,92.7,59.4,14.5,35,14,10,30.56,30.43,13,2,13,0.00
2013-7-18,91.6,77.2,70.5,91.6,56.6,20.5,55,22,12,30.45,30.30,6,1,6,0.00
2013-7-19,82.0,76.4,52.5,82.0,66.6,16.9,85,37,10,30.41,30.17,16,5,16,0.00
2013-7-20,72.3,72.1,72.0,72.3,72.1,72.0,0,0,100,30.15,30.14,4,2,4,0.00
2013-7-21,75.2,71.3,68.7,75.2,70.6,9.9,10,0,10,30.23,30.18,3,0,3,0.00
2013-7-22,84.4,69.7,66.2,84.4,35.1,10.0,32,22,10,30.22,30.06,22,2,22,1.52
2013-7-23,81.5,69.6,64.8,81.5,49.0,8.6,42,18,10,30.04,29.96,9,3,10,0.07
2013-7-24,77.7,66.2,56.1,77.7,63.6,26.2,30,2,25,30.23,30.01,10,3,10,0.01
2013-7-25,78.8,63.0,50.4,78.8,60.1,-4.0,12,1,10,30.32,30.22,12,3,12,0.00
2013-7-26,85.8,68.1,52.7,85.8,66.2,-2.2,14,0,10,30.35,30.25,8,1,8,0.00
2013-7-27,74.5,65.8,60.8,74.5,54.4,8.1,30,6,10,30.27,30.13,8,1,8,0.40
2013-7-28,79.0,68.7,55.8,79.0,62.5,31.6,35,6,30,30.28,30.12,14,3,15,0.00
2013-7-29,70.3,60.7,53.2,70.3,50.3,-0.2,85,33,10,30.43,30.27,10,-10,10,0.00
2013-7-30,79.2,65.3,54.0,60.3,55.5,50.9,98,73,46,30.48,30.39,8,2,8,0.00
2013-7-31,81.3,68.9,57.2,65.5,60.2,54.0,96,76,44,30.40,30.22,11,1,11,0.00
2013-8-1,81.7,68.5,62.8,67.8,63.5,59.4,99,86,52,30.22,30.12,11,2,11,0.12
2013-8-2,77.0,67.0,59.0,64.4,58.7,53.2,99,77,47,30.23,30.15,13,3,15,0.00
2013-8-3,77.9,66.1,58.1,67.5,62.7,53.4,99,90,63,30.24,30.18,17,4,19,0.52
2013-8-4,74.7,62.4,53.8,59.0,55.0,50.9,97,78,49,30.32,30.22,13,3,15,0.00
2013-8-5,75.6,62.2,51.8,58.5,53.8,50.9,99,76,44,30.36,30.27,9,1,9,0.00
2013-8-6,83.1,67.7,55.8,64.8,57.4,51.3,90,71,44,30.29,30.24,7,2,7,0.00
2013-8-7,84.4,69.7,63.1,72.3,65.6,60.8,99,88,61,30.28,30.20,14,3,14,1.41
2013-8-8,85.6,71.5,63.1,83.1,68.4,62.8,99,91,63,30.47,30.19,11,2,11,0.30
2013-8-9,78.8,71.0,66.4,74.5,69.8,66.0,99,96,83,30.27,30.15,13,3,13,0.50
2013-8-10,81.0,69.5,58.6,68.7,63.0,58.1,99,81,56,30.36,30.26,11,2,11,0.00
2013-8-11,85.5,71.4,60.6,69.3,63.9,57.9,99,79,54,30.38,30.28,9,2,9,0.00
2013-8-12,82.9,71.8,64.0,68.7,65.2,62.8,99,81,55,30.32,30.16,9,2,9,0.00
2013-8-13,78.3,66.5,53.1,70.7,62.4,49.5,99,87,67,30.19,30.05,15,3,15,0.38
2013-8-14,69.3,55.6,47.3,55.6,50.9,46.6,99,85,57,30.36,30.17,13,3,14,0.00
2013-8-15,78.6,60.6,47.8,57.7,50.6,45.1,99,73,37,30.43,30.22,6,1,6,0.00
2013-8-16,86.7,67.2,54.1,59.4,53.1,47.7,85,63,32,30.42,30.35,8,2,9,0.00
2013-8-17,77.9,65.0,54.3,60.4,55.4,52.3,94,73,46,30.50,30.41,12,2,12,0.00
2013-8-18,74.5,64.5,60.3,63.1,58.4,54.5,99,81,62,30.48,30.39,15,2,15,0.02
2013-8-19,80.8,67.3,60.4,69.1,63.7,60.1,99,89,59,30.40,30.31,6,1,6,0.26
2013-8-20,85.6,70.5,59.0,66.9,61.4,57.7,99,76,40,30.45,30.35,7,1,7,0.01
2013-8-21,90.0,73.5,62.1,70.0,63.6,57.2,93,73,44,30.45,30.33,7,1,8,0.00
2013-8-22,81.9,69.4,63.1,70.9,66.3,62.8,99,91,65,30.36,30.24,18,3,18,0.07
2013-8-23,84.7,70.0,64.4,67.3,62.7,54.1,99,80,41,30.40,30.25,10,1,10,0.01
2013-8-24,88.5,68.6,57.6,62.6,56.1,51.1,86,66,31,30.56,30.39,10,2,10,0.00
2013-8-25,84.0,69.3,57.7,64.0,58.4,53.1,91,70,41,30.61,30.49,9,2,9,0.00
2013-8-26,83.8,70.9,59.2,68.9,62.9,52.0,97,77,55,30.51,30.28,13,4,13,0.00
2013-8-27,80.1,72.1,68.0,72.9,69.2,65.7,99,91,74,30.29,30.19,13,3,13,0.01
2013-8-28,79.0,69.8,67.5,73.6,69.0,52.2,99,98,80,30.36,30.07,11,1,11,2.15
2013-8-29,90.5,74.6,66.9,72.3,67.9,64.9,99,82,45,30.30,30.17,8,2,8,0.00
2013-8-30,87.1,74.0,64.2,72.3,67.7,63.9,99,82,56,30.29,30.12,15,2,15,0.00
2013-8-31,86.9,74.4,67.6,73.8,69.3,67.3,99,86,57,30.14,30.06,13,3,13,0.00
2013-9-1,83.3,72.0,67.6,74.3,69.3,66.7,99,92,67,30.14,30.07,9,2,9,0.17
2013-9-2,84.2,70.9,45.5,73.2,68.2,45.5,99,92,64,30.35,30.01,13,3,13,1.41
2013-9-3,72.1,63.2,57.6,64.6,59.2,55.9,99,88,59,30.27,30.08,13,3,13,0.01
2013-9-4,77.2,62.9,52.3,61.3,56.4,52.0,99,82,51,30.35,30.26,11,2,11,0.01
2013-9-5,74.7,62.9,52.0,61.0,54.8,46.0,96,77,41,30.42,30.29,11,4,16,0.00
2013-9-6,79.2,60.3,47.1,50.7,43.6,36.1,88,57,27,30.49,30.36,8,2,8,0.00
2013-9-7,79.5,64.0,50.5,58.3,50.5,38.8,85,64,36,30.37,30.20,9,2,9,0.00
2013-9-8,79.7,66.6,59.2,68.0,61.3,54.5,99,84,60,30.32,30.17,11,3,11,0.22
2013-9-9,74.3,63.4,54.3,64.8,58.0,50.7,97,83,67,30.37,30.30,10,3,10,0.00
2013-9-10,88.7,75.1,64.8,76.5,70.3,63.5,98,86,63,30.43,30.31,15,4,15,0.01
2013-9-11,88.3,75.7,70.3,79.7,72.3,68.9,99,90,67,30.43,30.28,9,3,9,0.05
2013-9-12,77.0,68.8,59.7,73.0,67.6,59.4,99,96,82,30.29,30.04,17,4,17,0.27
2013-9-13,63.5,55.4,46.0,60.3,54.0,45.3,99,95,83,30.23,30.04,15,3,15,0.13
2013-9-14,66.7,51.9,45.0,50.4,45.9,41.5,99,82,49,30.38,30.22,11,2,11,0.13
2013-9-15,72.7,57.3,44.6,58.3,50.5,43.3,98,80,51,30.41,30.30,11,2,11,0.00
2013-9-16,71.6,58.2,48.6,58.1,53.9,47.5,99,87,55,30.50,30.29,11,2,11,0.24
2013-9-17,72.3,53.4,40.8,49.1,43.0,37.6,99,72,32,30.60,30.49,11,3,11,0.00
2013-9-18,75.7,56.3,45.9,54.3,46.5,39.6,93,72,36,30.50,30.36,11,2,11,0.00
2013-9-19,78.4,62.2,53.4,65.5,56.8,49.1,99,84,52,30.38,30.28,8,1,8,0.01
2013-9-20,82.4,67.2,57.2,68.7,62.5,56.8,99,86,60,30.30,30.12,11,2,11,0.00
2013-9-21,67.3,61.3,55.8,65.7,60.7,55.4,99,98,91,30.13,29.94,15,3,15,0.81
2013-9-22,62.2,53.8,48.9,55.8,51.3,47.8,99,92,66,30.22,30.01,12,3,12,0.01
2013-9-23,61.9,49.6,42.4,48.2,44.1,40.3,98,83,53,30.34,30.22,8,2,8,0.00
2013-9-24,75.0,55.6,41.4,50.7,44.5,39.0,99,71,32,30.32,30.20,7,2,7,0.00
2013-9-25,78.4,60.1,48.4,57.9,49.4,44.6,88,70,36,30.21,30.14,7,2,7,0.00
2013-9-26,81.9,62.5,51.8,54.7,47.4,39.7,86,61,30,30.31,30.17,9,2,9,0.00
2013-9-27,79.2,60.8,52.2,57.7,52.4,48.7,93,76,41,30.43,30.31,9,3,9,0.00
2013-9-28,69.3,57.2,50.9,56.5,52.0,48.9,99,84,57,30.51,30.39,11,2,11,0.00
2013-9-29,78.1,59.2,49.1,57.9,51.1,47.3,95,77,43,30.40,30.26,10,2,17,0.00
2013-9-30,74.5,61.1,52.3,62.1,55.6,49.1,96,83,62,30.29,30.22,8,1,8,0.00
2013-10-1,78.8,63.4,56.5,63.7,59.3,56.1,99,88,54,30.32,30.25,12,3,12,0.00
2013-10-2,81.0,66.6,59.9,66.9,61.8,58.3,97,85,58,30.34,30.28,11,3,11,0.00
2013-10-3,79.3,67.8,60.3,68.2,63.8,59.9,99,88,66,30.37,30.28,9,2,9,0.00
2013-10-4,82.0,69.2,63.5,69.8,65.4,63.0,99,89,58,30.35,30.28,11,2,11,0.00
2013-10-5,82.6,69.9,63.5,70.2,66.4,63.1,99,90,62,30.35,30.26,10,2,10,0.02
2013-10-6,88.9,73.6,65.7,69.3,64.0,59.4,99,74,39,30.27,30.07,14,3,14,0.01
2013-10-7,69.1,56.5,45.7,62.1,51.2,42.6,99,83,58,30.31,29.96,20,6,20,0.51
2013-10-8,69.8,53.1,42.3,50.0,43.9,41.0,99,74,37,30.51,30.31,11,2,11,0.00
2013-10-9,68.2,53.8,41.4,44.6,40.8,35.4,85,64,35,30.53,30.44,11,4,11,0.00
2013-10-10,65.5,52.7,46.2,48.7,43.6,37.9,97,74,37,30.44,30.30,13,4,13,0.00
2013-10-11,59.4,52.8,49.3,57.6,51.9,48.4,99,97,88,30.31,30.26,14,4,14,0.86
2013-10-12,78.8,62.9,54.1,61.3,56.7,51.1,99,82,52,30.40,30.19,11,4,12,0.00
2013-10-13,66.6,58.3,54.7,61.5,55.1,51.8,99,90,72,30.49,30.37,11,4,11,0.17
2013-10-14,63.5,57.6,54.0,58.6,55.9,53.6,99,94,81,30.51,30.44,11,2,11,0.00
2013-10-15,69.6,60.1,52.9,60.4,54.9,50.0,99,84,64,30.45,30.19,13,4,13,0.00
2013-10-16,62.1,58.0,55.0,59.7,54.7,50.0,98,89,77,30.25,30.11,11,3,13,0.14
2013-10-17,61.9,54.2,46.6,59.7,53.0,46.2,99,96,79,30.14,29.86,25,4,25,0.51
2013-10-18,62.1,49.3,43.9,49.6,42.9,39.7,99,80,47,30.21,30.07,18,5,18,0.02
2013-10-19,52.5,46.3,40.3,47.3,41.8,38.1,98,84,68,30.20,29.97,19,3,20,0.11
2013-10-20,58.5,45.0,37.2,41.2,37.9,35.8,99,78,48,30.26,30.11,17,5,17,0.00
2013-10-21,68.7,52.2,40.6,39.7,36.0,32.2,81,57,28,30.27,30.08,21,4,21,0.00
2013-10-22,54.3,45.8,37.6,46.6,36.3,29.1,99,71,45,30.13,30.03,17,4,17,0.19
2013-10-23,38.5,36.2,33.3,37.4,33.9,29.3,99,91,73,30.09,29.92,11,2,13,0.18
2013-10-24,43.9,34.8,30.4,35.6,31.7,28.0,99,89,57,30.28,30.07,15,4,17,0.07
2013-10-25,45.0,34.7,30.4,37.2,31.6,28.9,99,89,56,30.45,30.28,12,4,12,0.00
2013-10-26,50.5,38.5,28.9,32.4,28.2,24.1,94,69,40,30.40,30.09,22,7,22,0.00
2013-10-27,50.5,40.0,33.6,36.7,32.2,28.6,96,75,47,30.29,30.13,17,3,17,0.00
2013-10-28,62.1,45.7,33.4,37.8,32.4,29.5,88,62,30,30.47,30.28,11,2,11,0.00
2013-10-29,62.4,48.8,37.4,39.7,36.0,32.4,87,63,37,30.54,30.45,10,2,10,0.00
2013-10-30,69.4,54.9,44.2,52.3,45.0,36.5,92,70,50,30.45,30.32,11,2,11,0.00
2013-10-31,64.2,58.4,54.7,58.5,56.2,52.2,99,92,77,30.33,29.79,20,4,20,0.33
2013-11-1,65.1,56.8,48.4,57.9,48.6,41.9,97,75,46,29.94,29.63,26,7,27,0.19
2013-11-2,50.7,46.3,41.4,45.1,42.2,40.3,99,86,68,30.10,29.88,21,3,21,0.13
2013-11-3,49.6,38.2,29.8,41.2,31.3,22.6,99,78,45,30.59,30.10,14,4,14,0.04
2013-11-4,41.9,33.1,25.9,22.8,19.2,15.3,77,58,38,30.69,30.58,11,6,14,0.00
2013-11-5,52.5,42.2,34.0,35.8,25.8,21.9,77,53,36,30.68,30.53,11,4,11,0.00
2013-11-6,72.5,56.0,42.3,50.2,45.0,35.8,87,68,42,30.54,30.14,19,5,19,0.00
2013-11-7,62.2,43.6,34.0,55.6,40.4,25.7,99,89,65,30.27,30.07,22,5,22,0.69
2013-11-8,41.9,34.6,28.0,31.1,27.9,23.7,89,77,57,30.44,30.22,18,5,18,0.01
2013-11-9,52.3,41.4,27.7,30.7,24.2,19.2,84,55,27,30.43,30.14,27,5,27,0.00
2013-11-10,48.9,41.7,34.5,36.9,32.1,27.1,82,69,43,30.40,30.12,26,8,27,0.00
2013-11-11,49.1,38.3,29.5,36.5,29.1,23.7,98,72,43,30.42,30.19,16,5,17,0.05
2013-11-12,37.0,27.7,20.8,35.6,23.9,17.8,99,86,53,30.54,30.21,15,4,15,0.13
2013-11-13,38.1,27.6,22.3,24.4,20.9,18.3,96,77,50,30.61,30.48,17,5,20,0.00
2013-11-14,48.0,36.1,26.4,21.6,19.2,15.4,79,52,29,30.48,30.35,21,7,21,0.00
2013-11-15,56.8,45.6,39.7,38.8,21.7,15.4,79,40,21,30.40,30.32,15,5,20,0.00
2013-11-16,62.8,50.7,41.4,47.1,43.4,37.8,94,77,55,30.44,30.28,12,4,12,0.00
2013-11-17,57.4,53.3,48.9,56.3,52.0,47.1,99,96,89,30.30,29.79,27,6,27,0.86
2013-11-18,69.1,46.4,35.1,67.3,35.4,26.8,95,67,42,30.18,29.86,27,10,27,0.04
2013-11-19,35.1,31.5,26.1,28.2,24.8,21.2,83,76,68,30.53,30.17,21,5,21,0.00
2013-11-20,45.7,33.4,24.6,21.6,15.9,4.5,84,53,20,30.62,30.51,15,7,15,0.00
2013-11-21,51.4,39.3,30.4,40.6,30.7,17.2,85,72,53,30.61,30.43,12,5,12,0.00
2013-11-22,50.7,46.4,33.6,50.4,45.5,31.8,99,96,79,30.44,30.23,23,6,23,0.24
2013-11-23,39.6,27.5,15.4,32.4,22.2,8.2,96,81,51,30.38,30.21,24,8,24,0.01
2013-11-24,23.0,15.8,11.7,15.4,9.8,6.6,89,77,61,30.58,30.36,24,6,24,0.00
2013-11-25,35.1,23.5,11.3,26.1,10.3,6.4,87,59,36,30.58,30.35,17,4,17,0.00
2013-11-26,34.2,31.4,27.7,34.0,31.1,24.3,99,99,75,30.38,29.86,11,2,11,0.66
2013-11-27,32.2,26.1,18.7,32.0,25.0,16.2,99,96,85,30.18,29.81,2,0,8,0.01
2013-11-28,28.0,20.8,14.2,19.4,15.5,12.2,94,80,55,30.53,30.17,0,0,0,0.00
2013-11-29,34.2,25.0,17.1,24.8,19.7,15.6,95,81,65,30.77,30.52,8,2,8,0.01
2013-11-30,34.2,26.3,20.7,24.3,20.7,16.7,94,79,64,30.75,30.39,17,6,17,0.00
2013-12-1,45.9,36.3,28.8,31.6,27.2,22.8,78,70,52,30.39,30.14,11,4,11,0.07
2013-12-2,50.7,40.9,35.8,38.8,33.9,29.7,88,76,60,30.15,30.01,8,2,8,0.01
2013-12-3,55.0,43.2,37.0,42.3,38.2,35.1,97,83,59,30.13,30.02,11,2,11,0.01
2013-12-4,62.4,48.8,41.4,48.0,41.7,36.5,87,77,58,30.21,30.12,11,4,11,0.00
2013-12-5,61.7,54.2,40.6,58.5,51.8,40.5,99,92,78,30.19,30.09,17,4,17,1.24
2013-12-6,40.6,31.8,26.8,40.5,31.6,26.6,99,99,99,30.39,30.18,13,2,13,0.39
2013-12-7,32.7,23.2,14.7,26.6,21.5,12.7,99,93,70,30.67,30.36,0,0,0,0.01
2013-12-8,26.1,18.6,12.9,25.9,17.0,10.8,99,93,86,30.67,30.27,0,0,0,0.00
2013-12-9,40.1,31.5,26.1,39.9,30.7,25.2,99,97,91,30.27,30.14,21,-74,21,0.00
2013-12-10,28.2,23.2,18.5,25.2,18.7,10.4,98,83,61,30.32,30.13,0,0,0,0.00
2013-12-11,26.1,20.1,14.9,19.8,13.3,10.8,96,76,57,30.44,30.32,17,3,17,0.00
2013-12-12,21.4,15.5,9.9,16.2,7.1,1.9,93,70,46,30.51,30.32,21,7,21,0.00
2013-12-13,34.3,23.9,14.7,19.2,13.4,5.4,72,64,49,30.40,30.30,17,5,17,0.00
2013-12-14,32.5,29.5,27.1,32.4,25.2,16.2,99,86,56,30.39,29.85,18,5,18,0.01
2013-12-15,36.0,26.6,16.2,35.6,25.3,10.4,99,95,75,30.11,29.78,24,8,24,0.01
2013-12-16,24.3,17.3,12.2,23.5,13.2,8.8,97,84,67,30.26,30.10,19,4,19,0.00
2013-12-17,31.8,27.8,24.3,31.6,27.1,23.5,99,97,89,30.18,30.07,16,3,16,0.00
2013-12-18,27.5,23.5,20.3,23.7,21.2,17.8,99,91,82,30.32,30.13,16,6,18,0.00
2013-12-19,50.9,40.4,24.1,35.6,27.5,17.4,84,61,46,30.26,30.19,23,7,23,0.05
2013-12-20,55.6,49.5,45.0,50.4,38.8,26.2,99,69,44,30.22,30.11,30,7,30,0.04
2013-12-21,60.4,57.2,54.7,58.6,55.3,50.0,99,94,82,30.12,29.96,21,6,21,0.85
2013-12-22,64.9,58.5,53.2,59.4,54.7,48.9,99,87,75,30.16,29.86,33,8,33,0.30
2013-12-23,53.2,37.4,26.8,49.3,35.5,21.4,99,93,77,30.39,30.14,18,3,18,0.22
2013-12-24,26.8,20.0,8.4,23.0,14.8,5.4,97,80,53,30.57,30.33,0,0,0,0.00
2013-12-25,25.9,16.6,6.3,14.7,9.8,4.6,94,76,57,30.58,30.35,0,0,0,0.00
2013-12-26,35.8,26.5,20.5,27.0,21.3,14.4,99,81,58,30.46,30.27,21,4,21,0.00
2013-12-27,41.0,30.0,19.6,25.7,20.6,14.5,84,68,52,30.48,30.40,21,5,21,0.00
2013-12-28,51.3,41.2,34.2,30.6,25.9,21.0,65,55,43,30.41,30.24,24,7,24,0.00
2013-12-29,43.2,39.1,30.2,39.9,33.8,22.8,99,85,45,30.25,29.82,20,5,20,0.74
2013-12-30,36.7,23.8,17.1,36.5,21.7,13.6,99,91,74,30.30,29.98,20,1,20,0.01
2013-12-31,22.6,19.1,16.2,21.2,17.3,12.6,99,93,83,30.40,30.18,0,0,0,0.00
2014-1-1,38.1,27.1,18.1,26.4,21.9,16.2,95,81,59,30.43,30.20,9,2,9,0.04
2014-1-2,30.9,24.8,9.1,24.8,21.5,7.5,99,88,75,30.20,29.81,15,4,15,0.01